Location: Newark
(45.5000°N, 11.4167°E)
Time: 03:59:13
(UTC+00:00)

A-11 Canister half - Pass Details

Date: 24 August 2019
Orbit: 1513 x 1686 km, 47.2° (Epoch: 19 September)

Event Time Altitude Azimuth Distance (km) Brightness Sun altitude
Rises 17:15:54 0° 240° (WSW) 4,669 12.5 8.0°
Reaches altitude 10° 17:18:54 10° 239° (WSW) 3,702 11.9 7.5°
Maximum altitude 17:28:15 76° 155° (SSE) 1,610 9.2 5.8°
Drops below altitude 10° 17:37:58 10° 72° (ENE) 3,839 10.6 4.2°
Sets 17:41:07 0° 72° (ENE) 4,850 11.1 3.6°
